Regional Weather Roundup
Issued by NWS Cleveland, OH

Home | Current Version | Previous Version | Graphics & Text | Print | Product List | Glossary On
Versions: 1 2 3 4 5 6 7 8 9 10 11 12 13 14 15 16 17 18 19 20 21 22 23 24 25 26 27 28 29 30 31 32 33 34 35 36 37 38 39 40 41 42 43 44 45 46 47 48 49 50
000
ASUS41 KCLE 250700
RWRCLE
OHIO REGIONAL WEATHER ROUNDUP
NATIONAL WEATHER SERVICE WILMINGTON, OH
300 AM EDT SUN SEP 25 2016

NOTE: "FAIR" INDICATES FEW OR NO CLOUDS BELOW 12,000 FEET WITH NO
SIGNIFICANT WEATHER AND/OR OBSTRUCTIONS TO VISIBILITY.

OHZ001>008-015>018-024>027-034-035-043-044-250800-
   NORTHWEST OHIO

CITY           SKY/WX    TMP DP  RH WIND       PRES   REMARKS
DEFIANCE       FAIR      56  52  86 E3        30.21S
FINDLAY        FAIR      57  47  69 E7        30.20S
TOLEDO EXPRESS FAIR      53  53 100 SE3       30.21S
TOLEDO EXEC    FAIR      55  51  86 SE7       30.22S
LIMA           FAIR      56  51  84 E6        30.19S
$$

OHZ009>014-019>023-028>033-038-089-250800-
   NORTHEAST OHIO

CITY           SKY/WX    TMP DP  RH WIND       PRES   REMARKS
CLE-HOPKINS    FAIR      56  44  64 E7        30.24R
CLE-LAKEFRONT  FAIR      58  44  60 E8        30.21S
CUY CO. ARPT   NOT AVBL
LORAIN-ELYRIA  FAIR      50  44  80 CALM      30.22S
ASHTABULA      FAIR      48  44  86 E6        30.24S
AKRON-CANTON   FAIR      50  45  83 NE7       30.21R
WOOSTER        NOT AVBL
MANSFIELD      FAIR      52  47  83 E5        30.21S
YOUNGSTOWN     FAIR      49  44  83 NE8       30.22S
$$

OHZ042-051>053-060>062-070>072-077>081-250800-
  SOUTHWEST OHIO

CITY           SKY/WX    TMP DP  RH WIND       PRES   REMARKS
CINC-COVINGTON FAIR      70  65  84 NE7       30.14S
CINC-LUNKEN    FAIR      65  65 100 CALM      30.14S
HAMILTON       FAIR      61  59  93 CALM      30.16R
DAYTON         NOT AVBL
WRIGHT-PAT AFB NOT AVBL
DAYTON GENERAL FAIR      62  55  77 E9        30.15S
WILMINGTON     FAIR      60  57  89 NE8       30.16S
$$

OHZ036-037-039>041-045>050-054>059-063>069-073>076-082>088-250800-
  CENTRAL AND SOUTHEAST OHIO

CITY           SKY/WX    TMP DP  RH WIND       PRES   REMARKS
COLUMBUS       FAIR      59  54  83 E5        30.18R
OSU AIRPORT    FAIR      58  53  84 NE5       30.19R
BOLTON FIELD   NOT AVBL
RICKENBACK AFB NOT AVBL
NEWARK         FAIR      58  51  78 CALM      30.18S
MARION         FAIR      53  49  86 NE3       30.21R
LANCASTER      FAIR      57  53  86 NE3       30.18R
ZANESVILLE     FAIR      55  50  83 CALM      30.18S
NEW PHILLY     FAIR      51  49  92 CALM      30.20S
$$



USA.gov is the U.S. government's official web portal to all federal, state and local government web resources and services.